• MPC Preparation (Info)

  • MPEC 2016-J54 : 2016 JY5

    The following Minor Planet Electronic Circular may be linked-to from your own Web pages, but must not otherwise be redistributed electronically.

    A form allowing access to any MPEC is at the bottom of this page.


    Read MPEC 2016-J53 Read MPEC 2016-J55


    M.P.E.C. 2016-J54                                Issued 2016 May 5, 15:49 UT
    
         The Minor Planet Electronic Circulars contain information on unusual
             minor planets and routine data on comets.  They are published
        on behalf of Division F of the International Astronomical Union by the
              Minor Planet Center, Smithsonian Astrophysical Observatory,
                              Cambridge, MA 02138, U.S.A.
    
                 Prepared using the Tamkin Foundation Computer Network
    
                                  MPC@CFA.HARVARD.EDU
                URL https://www.minorplanetcenter.net/    ISSN 1523-6714
    
                                       2016 JY5
    
    Observations:
         K16J05Y  C2016 05 04.25836 13 26 21.20 +08 18 00.8          19.4 VqEJ054703
         K16J05Y  C2016 05 04.26436 13 26 28.29 +08 17 50.3          18.8 VqEJ054703
         K16J05Y  C2016 05 04.27638 13 26 42.27 +08 17 28.8          18.4 VqEJ054703
         K16J05Y* C2016 05 04.30266 13 27 12.86 +08 16 42.2          19.2 VqEJ054703
         K16J05Y  C2016 05 04.31504 13 27 27.26 +08 16 18.1          18.7 VqEJ054703
         K16J05Y  C2016 05 04.32123 13 27 34.41 +08 16 06.0          19.9 VqEJ054703
         K16J05Y  C2016 05 04.37052 13 28 31.74 +08 14 32.1          19.4 VqEJ054I52
         K16J05Y  C2016 05 04.37128 13 28 32.79 +08 14 29.0          20.7 VqEJ054I52
         K16J05Y  C2016 05 04.37205 13 28 33.52 +08 14 28.5          20.5 VqEJ054I52
         K16J05Y  C2016 05 04.37281 13 28 34.52 +08 14 27.0          20.0 VqEJ054I52
         K16J05Y KC2016 05 04.89155 13 39 09.82 +07 59 13.3          19.5 RqEJ054587
         K16J05Y KC2016 05 04.89652 13 39 17.59 +07 58 29.3                qEJ054J95
         K16J05Y KC2016 05 04.89786 13 39 15.85 +07 59 05.5          19.2 RqEJ054203
         K16J05Y KC2016 05 04.89798 13 39 19.48 +07 59 10.4          19.4 VqEJ054I93
         K16J05Y KC2016 05 04.89879 13 39 19.78 +07 58 26.1                qEJ054J95
         K16J05Y KC2016 05 04.89929 13 39 17.02 +07 59 02.5                qEJ054587
         K16J05Y KC2016 05 04.90106 13 39 21.90 +07 58 22.9          19.6 RqEJ054J95
         K16J05Y KC2016 05 04.90385 13 39 24.96 +07 59 02.1          19.5 VqEJ054I93
         K16J05Y KC2016 05 04.90931 13 39 30.02 +07 58 54.5          19.6 VqEJ054I93
         K16J05Y KC2016 05 04.91655 13 39 37.15 +07 58 49.3          19.5 RqEJ054958
         K16J05Y KC2016 05 04.92370 13 39 43.69 +07 58 39.0          19.6 RqEJ054958
         K16J05Y KC2016 05 04.92472 13 39 40.66 +07 58 26.2          19.5 RqEJ054203
         K16J05Y KC2016 05 04.93084 13 39 50.24 +07 58 28.3          19.5 RqEJ054958
         K16J05Y KC2016 05 04.95339613 40 17.981+07 59 41.74         19.7 RqEJ054J04
         K16J05Y KC2016 05 04.95483 13 40 11.72 +07 56 52.7          19.9 VqEJ054Z99
         K16J05Y KC2016 05 04.95548713 40 19.824+07 59 38.61         19.4 RqEJ054J04
         K16J05Y KC2016 05 04.95757713 40 21.671+07 59 35.69         19.8 RqEJ054J04
         K16J05Y KC2016 05 04.95976 13 40 16.26 +07 56 45.7          19.9 VqEJ054Z99
         K16J05Y KC2016 05 04.96469 13 40 20.84 +07 56 38.7          20.0 VqEJ054Z99
         K16J05Y KC2016 05 04.97205 13 40 24.03 +07 57 11.9          20.4 RqEJ054204
         K16J05Y KC2016 05 04.98270 13 40 33.72 +07 56 55.3                qEJ054204
         K16J05Y KC2016 05 04.99279 13 40 42.86 +07 56 39.2                qEJ054204
         K16J05Y  C2016 05 05.15105 13 43 46.07 +07 54 09.1          20.1 VqEJ054I52
         K16J05Y  C2016 05 05.15147 13 43 46.46 +07 54 08.4          20.9 VqEJ054I52
         K16J05Y  C2016 05 05.15188 13 43 46.80 +07 54 08.0          20.0 VqEJ054I52
         K16J05Y  C2016 05 05.15230 13 43 47.18 +07 54 07.2          19.3 VqEJ054I52
         K16J05Y  C2016 05 05.16584113 43 56.98 +07 53 41.4          20.1 VtEJ054H01
         K16J05Y  C2016 05 05.17310313 44 03.01 +07 53 31.9          19.7 VtEJ054H01
         K16J05Y  C2016 05 05.18439813 44 12.31 +07 53 17.3          19.6 VtEJ054H01
         K16J05Y  C2016 05 05.19286013 44 19.24 +07 53 06.1          20.3 VtEJ054H01
         K16J05Y  C2016 05 05.32032 13 46 01.36 +07 50 22.6          19.9 RuEJ054926
         K16J05Y  C2016 05 05.32581 13 46 05.57 +07 50 14.6          19.7 RuEJ054926
         K16J05Y  C2016 05 05.33127 13 46 09.82 +07 50 06.5          20.0 RuEJ054926
    
    Observer details:
    203 GiaGa Observatory.  Observers S. Foglia, G. Galli.  Measurer G. Galli.
        0.28-m f/6.8 Schmidt-Cassegrain + CCD.
    204 Schiaparelli Observatory.  Observer L. Buzzi.  0.60-m f/4.64 reflector
        + CCD.
    587 Sormano.  Observers A. Fumagalli, P. Sicoli, A. Testa.  Measurer P. Sicoli.
        0.5-m f/6.8 reflector + CCD.
    703 Catalina Sky Survey.  Observer D. C. Fuls.  Measurers E. J. Christensen,
        D. C. Fuls, A. R. Gibbs, A. D. Grauer, J. A. Johnson, R. A. Kowalski,
        S. M. Larson, G. J. Leonard, R. G. Matheny, R. L. Seaman, F. C. Shelly.
        0.68-m Schmidt + CCD.
    926 Tenagra II Observatory.  Observers M. Schwartz, P. R. Holvorcem.  Measurer
        M. Schwartz.  0.41-m f/3.75 astrograph + CCD, 0.81-m f/7 Ritchey-Chretien
        + CCD.
    958 Observatoire de Dax.  Observer P. Dupouy.  0.51-m f/6 reflector + CCD.
    H01 Magdalena Ridge Observatory, Socorro.  Observers W. H. Ryan, E. V. Ryan.
        Measurer W. H. Ryan.  2.4-m f/8.9 reflector + CCD.
    I52 Steward Observatory, Mt. Lemmon Station.  Observer R. A. Kowalski.
        Measurers E. J. Christensen, D. C. Fuls, A. R. Gibbs, A. D. Grauer,
        J. A. Johnson, R. A. Kowalski, S. M. Larson, G. J. Leonard, R. G. Matheny,
        R. L. Seaman, F. C. Shelly.  1.0-m reflector + CCD.
    I93 St Pardon de Conques.  Observer F. Losse.  0.40-m f/3.7 reflector + CCD.
    J04 ESA Optical Ground Station, Tenerife.  Observer P. Ruiz.  Measurers
        M. Micheli, D. Koschny, A. Knoefel, E. Schwab, M. Busch.  1.0-m f/4.4
        reflector + CCD.
    J95 Great Shefford.  Observer P. Birtwhistle.  0.40-m f/6.0 Schmidt-Cassegrain
        + CCD.
    Z99 Clixby Observatory, Cleethorpes.  Observer A. Mickleburgh.  0.36-m f/8
        Schmidt-Cassegrain + CCD.
    
    Orbital elements:
    2016 JY5                                                 Earth MOID = 0.0012 AU
    Epoch 2016 July 31.0 TT = JDT 2457600.5                 MPC
    M 138.38287              (2000.0)            P               Q
    n   0.86933690     Peri.  277.50258     -0.73879908     -0.67189536
    a   1.0872864      Node   220.30527     +0.64579953     -0.68365774
    e   0.2111369      Incl.    4.63522     +0.19266262     -0.28490125
    P   1.13           H   27.2           G   0.15           U   6
    Residuals in seconds of arc
    160504 703  0.4-  0.1-    160504 587  0.6-  0.8+    160504 204  0.4+  0.5+
    160504 703  0.6+  0.0     160504 J95  0.2-  0.2-    160504 204  0.1-  0.4+
    160504 703  0.3-  0.1-    160504 I93  0.0   0.1+    160505 I52  0.4-  0.2+
    160504 703  0.1+  1.2+    160504 I93  0.0   0.3+    160505 I52  0.1+  0.0
    160504 703  0.5+  0.1+    160504 958  0.8+  0.1+    160505 I52  0.0   0.1+
    160504 703  0.0   0.4-    160504 958  0.4+  0.1+    160505 I52  0.3+  0.1-
    160504 I52  1.1-  0.6+    160504 203  0.1-  0.0     160505 H01  0.2-  0.0
    160504 I52  1.3+  1.1-    160504 958  0.7+  0.2-    160505 H01  0.2-  0.2-
    160504 I52  1.2-  0.1-    160504 J04  0.1-  0.2+    160505 H01  0.3-  0.0
    160504 I52  0.4+  0.1-    160504 Z99  0.2+  0.4-    160505 H01  0.1-  0.1-
    160504 587  0.5-  0.3+    160504 J04  0.0   0.0     160505 926  0.7+  0.2-
    160504 J95  0.2-  0.2-    160504 J04  0.2+  0.1+    160505 926  0.2-  0.1+
    160504 203  0.1+  0.5-    160504 Z99  0.4-  0.0     160505 926  0.1-  0.3+
    160504 I93  0.2-  0.1+    160504 Z99  0.2-  0.4+
    160504 J95  0.3+  0.2-    160504 204  0.4+  0.4+
    
    Ephemeris:
    2016 JY5                 a,e,i = 1.09, 0.21, 5                   q = 0.8577
    Date    TT    R. A. (2000) Decl.     Delta      r     Elong.  Phase     V
    2016 04 05    03 17 06.5 -03 43 20   0.09674 0.9244    36.4   140.1    28.8
    ...
    2016 04 20    03 51 06.9 -03 41 00   0.03852 0.9727    33.3   145.5    27.7
    ...
    2016 04 28    05 56 59.8 +01 16 36   0.01095 1.0005    54.6   124.9    22.6
    ...
    2016 05 04    13 20 12.1 +08 29 27   0.01591 1.0219   147.8    31.8    19.6
    2016 05 05    13 40 58.2 +08 01 12   0.01927 1.0254   150.5    29.0    20.0
    2016 05 06    13 55 29.8 +07 38 13   0.02275 1.0290   152.0    27.4    20.3
    ...
    2016 05 12    14 33 43.7 +06 15 03   0.04468 1.0504   153.5    25.5    21.7
    ...
    2016 05 20    14 50 15.7 +05 02 22   0.07553 1.0788   151.3    26.8    23.0
    ...
    2016 06 04    15 04 28.7 +02 38 39   0.1386  1.1300   144.3    31.6    24.5
    
    A. U. Tomatic                (C) Copyright 2016 MPC           M.P.E.C. 2016-J54
    

    Read MPEC 2016-J53 Read MPEC 2016-J55


    MPEC number:

    Enter an MPEC number in one of the following forms:

    • 1997-B01 (the full form)
    • J97B01 (the packed version of the full form)
    • B01 (the abbreviated form)